Regional Weather Roundup
Issued by NWS

Home | Current Version | Previous Version | Graphics & Text | Print | Product List | Glossary Off
Versions: 1 2 3 4 5 6 7 8 9 10 11 12 13 14 15 16 17 18 19 20 21 22 23 24 25 26 27 28 29 30 31 32 33 34 35 36 37 38 39 40 41 42 43 44 45 46 47 48 49 50

000
ASUS43 KFSD 240202
RWRSD

WEATHER ROUNDUP FOR SOUTH DAKOTA
NATIONAL WEATHER SERVICE SIOUX FALLS SD
900 PM CDT SAT SEP 23 2017

NOTE: "FAIR" INDICATES FEW OR NO CLOUDS BELOW 12,000 FEET WITH NO
SIGNIFICANT WEATHER AND/OR OBSTRUCTIONS TO VISIBILITY.


SDZ001>005-009-010-012>017-240300-
NORTHWEST AND NORTH CENTRAL SOUTH DAKOTA

CITY           SKY/WX    TMP DP  RH WIND       PRES   REMARKS
BUFFALO          N/A     45  44  97 NE10      29.99S
FAITH            N/A     47  47 100 N12       30.03R
MOBRIDGE       CLOUDY    54  51  90 CALM      30.01R
$$

SDZ012>016-024>037-041>051-057-063-072>074-240300-
SOUTHWEST AND SOUTH CENTRAL SOUTH DAKOTA

CITY           SKY/WX    TMP DP  RH WIND       PRES   REMARKS
RAPID CTY ARPT LGT RAIN  46  45  93 N10       30.04F FOG
PIERRE         LGT RAIN  51  49  92 NW5       29.98S
CUSTER         CLOUDY    40  37  89 NE7       30.02S
ELLSWORTH AFB  LGT RAIN  46  46 100 N9        30.04R
PHILIP         LGT RAIN  50  50 100 N7        30.00F FOG
PINE RIDGE     LGT RAIN  47  46  97 N5        30.01S FOG
SPEARFISH      CLOUDY    43  43 100 E8        30.05F
WINNER         CLOUDY    53  52  96 N8        29.95F
$$

SDZ004>011-016>023-039-040-240300-
NORTHEAST SOUTH DAKOTA

CITY           SKY/WX    TMP DP  RH WIND       PRES   REMARKS
ABERDEEN       CLOUDY    54  54 100 NE10      29.95R
WATERTOWN      TSTM      53  53 100 N14       29.96S FOG
BROOKINGS      LGT RAIN  56  55  97 N12       29.95R
SISSETON         N/A     55  55 100 N8        29.95F
$$

SDZ017-020-022-023-036>040-048>070-240300-
SOUTHEAST SOUTH DAKOTA

CITY           SKY/WX    TMP DP  RH WIND       PRES   REMARKS
SIOUX FALLS    CLOUDY    65  63  93 E7        29.88R
HURON          RAIN      55  55 100 NE6       29.94R FOG
CHAMBERLAIN    RAIN      54  54 100 N5        29.94F
MITCHELL       TSTM      57  57 100 NE7       29.95F FOG
YANKTON        CLOUDY    59  56  89 NW22      29.93S
$$

ABBREVIATIONS USED IN REMARKS
   TC - TEMPERATURE IN CELSIUS
  WCI - WIND CHILL INDEX
   HX - HEAT INDEX
  VSB - VISIBILITY




USA.gov is the U.S. government's official web portal to all federal, state and local government web resources and services.